FENGYUN 1C DEB

Satellite information

Favourite Embed

Satellite Type and Status

DEBRISIN ORBIT

Key statistics

Satellite FENGYUN 1C DEB at a glance.

Uptime

9668

Days in orbit

Revolutions

≈ 14.6

Per day

Orbit

SSO

Sun Synchronous Orbit

Inclination

98.9

Latest

Satellite identification and parameters

Extended collection of information and parameters for FENGYUN 1C DEB.

Object identification

Identified? True

Debris? True

Object name: FENGYUN 1C DEB

International designator: 1999-025ASD

Object number (NORAD): 30719

Object ID (CCSDS): 30719

Country: PEOPLES REPUBLIC OF CHINA (PRC)

Current information (Y/N): Y

RCS size: SMALL

Orbital parameters

Period: 98.836 minutes

Inclination: 98.8904 deg

SMA: 7081.169 km

Apoapsis: 710.105 km

Periapsis: 695.962 km

RAAN: 77.8642 deg

Eccentricy: 0.00099865

Argument of periapsis: 322.7515 deg

Mean anomaly: 37.2988 deg

Mean motion: 14.56952414 rev/day

Mean motion (dot): 0.00016608 rev/day2

B* drag term: 0.003698298 1/REarth

Two-line elements (TLE)

Creation date: Oct. 27, 2025, 2:46 a.m.

Reference frame: TEME

Reference center: EARTH

Epoch: Oct. 26, 2025, 8:13 a.m. UTC

TLE line 0: 0 FENGYUN 1C DEB

TLE line 1: 1 30719U 99025ASD 25299.34284280 .00016608 00000-0 36983-2 0 9995

TLE line 2: 2 30719 98.8904 77.8642 0009986 322.7515 37.2988 14.56952414967584

Live tracking on map

Real-time ground track for satellite FENGYUN 1C DEB.

In-orbit conjunctions

A list of the most updated potential collisions computed for object FENGYUN 1C DEB.

Target Orbit TCA Probability of collision Miss distance Type
ERS 2 DEB SSO 2025-10-08 13:52:23 0.0002392718 110.0 (m) DEBRIS

Associated space launch

Chinese polar orbiting meteorological satellite

FENGYUN 1C DEB was lifted into orbit during the mission ‘Long March 4B | Feng Yun 1C’, on board a Long March 4B space rocket.

The launch took place on May 10, 1999, 1:33 a.m. from Launch Complex 7.

For more information about the launch, click the button.

Launch to space Long March 4B | Feng Yun 1C
Long March 4B | Feng Yun 1C

Agency: N/A

Status: Launch Successful

Launch date: May 10, 1999, 1:33 a.m. UTC

Rocket: Long March 4B

Launch pad: Launch Complex 7

Location: Taiyuan Satellite Launch Center, People's Republic of China

...

Latest news about this satellite

There are no fresh news available about this satellite. Check back as we update our databases every day.


Newsletter sign-up

Weekly statistics, charts and insights to help you stay on top of the space industry.